Bryce Canyon, UT

10:48 AM MDT on April 26, 2017 (GMT -0600)
Bryce Canyon

Weather History for KBCE - April, 2014

Change the Weather History Date:

Tuesday, April 1, 2014

  Actual Average Record
Temperature  
Mean Temperature 32 °F -  
Max Temperature 39 °F 46 °F 68 °F (2011)
Min Temperature 28 °F 21 °F 7 °F (1984)
Degree Days  
Heating Degree Days 32    
Moisture  
Dew Point 19 °F    
Average Humidity 58    
Maximum Humidity 85    
Minimum Humidity 36    
Precipitation  
Precipitation 0.00 in - - ()
Sea Level Pressure  
Sea Level Pressure 29.68 in    
Wind  
Wind Speed 16 mph (SW)    
Max Wind Speed 24 mph    
Max Gust Speed 33 mph    
Visibility 8 miles    
Events Fog , Snow    
Averages and records for this station are not official NWS values.
T = Trace of Precipitation, MM = Missing Value Source: NWS Daily Summary

Daily Weather History Graph

Daily Weather History Graph

Search for Another Location

Airport or City:

Trip Planner

Search our weather history database for the weather conditions in past years. The results will help you decide how hot, cold, wet, or windy it might be!

Date:

Astronomy

Apr. 01, 2014 Rise Set
Actual Time 7:13 AM MDT 7:51 PM MDT
Civil Twilight 6:47 AM MDT 8:18 PM MDT
Nautical Twilight 6:16 AM MDT 8:49 PM MDT
Astronomical Twilight 5:44 AM MDT 9:21 PM MDT
Moon 8:21 AM MDT (4/1) 10:15 PM MDT (4/1)
Length of Visible Light 13h 30m
Length of Day
12h 37m
Waxing Crescent, 5% of the Moon is Illuminated
Apr 1
Waxing Crescent
Apr 7
First Quarter
Apr 15
Full
Apr 22
Last Quarter
Apr 29
New

Hourly Weather History & Observations

Time (MDT) Temp. Windchill Dew Point Humidity Pressure Visibility Wind Dir Wind Speed Gust Speed Precip Events Conditions
12:53 AM 37.9 °F 27.9 °F 15.1 °F 39% 29.66 in 10.0 mi SSW 19.6 mph 27.6 mph N/A   Overcast
1:53 AM 35.1 °F 24.1 °F 21.9 °F 59% 29.68 in 7.0 mi SW 19.6 mph 28.8 mph 0.00 in Snow Light Snow
2:53 AM 37.0 °F 27.4 °F 18.0 °F 46% 29.64 in 10.0 mi SSW 17.3 mph 31.1 mph 0.00 in   Overcast
3:53 AM 37.9 °F 27.6 °F 16.0 °F 41% 29.59 in 10.0 mi SSW 20.7 mph 27.6 mph N/A   Overcast
4:53 AM 37.0 °F 27.0 °F 17.1 °F 44% 29.57 in 10.0 mi SSW 18.4 mph 29.9 mph N/A   Overcast
5:53 AM 36.0 °F 24.2 °F 18.0 °F 48% 29.57 in 10.0 mi SSW 24.2 mph 33.4 mph N/A   Overcast
6:53 AM 35.1 °F 23.8 °F 18.0 °F 50% 29.57 in 10.0 mi SSW 20.7 mph 29.9 mph N/A   Overcast
7:53 AM 33.1 °F 23.9 °F 17.1 °F 52% 29.59 in 10.0 mi SW 12.7 mph 21.9 mph N/A   Overcast
8:53 AM 33.1 °F 23.0 °F 12.9 °F 43% 29.62 in 10.0 mi SW 15.0 mph 29.9 mph N/A   Overcast
9:53 AM 32.0 °F 21.6 °F 19.9 °F 61% 29.64 in 10.0 mi South 15.0 mph - N/A   Overcast
10:46 AM 30.9 °F 20.7 °F 23.0 °F 72% 29.80 in 5.0 mi South 13.8 mph 19.6 mph N/A   Haze
10:49 AM 30.2 °F 19.8 °F 24.8 °F 80% 29.81 in 1.8 mi South 13.8 mph 19.6 mph 0.00 in Snow Light Snow
10:53 AM 30.0 °F 17.9 °F 25.0 °F 82% 29.68 in 0.8 mi SW 18.4 mph 26.5 mph 0.00 in Snow Light Snow
10:59 AM 30.0 °F 19.5 °F 26.1 °F 85% 29.81 in 0.5 mi SW 13.8 mph 26.5 mph 0.00 in Fog , Snow Snow
11:05 AM 32.0 °F 23.0 °F 28.0 °F 85% 29.81 in 1.0 mi West 11.5 mph 24.2 mph 0.00 in Snow Light Snow
11:09 AM 32.0 °F 24.8 °F 27.0 °F 82% 29.81 in 3.0 mi WSW 8.1 mph 24.2 mph 0.00 in Snow Light Snow
11:21 AM 32.0 °F 21.6 °F 24.1 °F 73% 29.82 in 7.0 mi WSW 15.0 mph 21.9 mph 0.00 in   Overcast
11:53 AM 36.0 °F 26.7 °F 21.0 °F 55% 29.65 in 10.0 mi SSE 15.0 mph - 0.00 in   Mostly Cloudy
12:00 PM 35.1 °F 27.4 °F 19.0 °F 52% 29.81 in 10.0 mi SW 10.4 mph 21.9 mph N/A   Overcast
12:51 PM 35.6 °F 24.8 °F 21.2 °F 56% 29.81 in 10.0 mi West 19.6 mph 27.6 mph N/A   Overcast
12:53 PM 35.1 °F 23.8 °F 21.0 °F 57% 29.65 in 10.0 mi WSW 20.7 mph 27.6 mph N/A   Overcast
1:53 PM 37.9 °F 29.6 °F 16.0 °F 41% 29.65 in 10.0 mi SW 13.8 mph 29.9 mph 0.00 in   Mostly Cloudy
2:53 PM 37.9 °F 28.5 °F 19.0 °F 47% 29.64 in 10.0 mi WSW 17.3 mph 27.6 mph 0.00 in   Mostly Cloudy
3:53 PM 37.0 °F 28.9 °F 17.1 °F 44% 29.62 in 10.0 mi West 12.7 mph 25.3 mph N/A   Overcast
4:53 PM 37.9 °F 29.2 °F 15.1 °F 39% 29.62 in 10.0 mi WSW 15.0 mph 24.2 mph N/A   Overcast
5:53 PM 37.0 °F 27.0 °F 15.1 °F 41% 29.61 in 10.0 mi West 18.4 mph 23.0 mph N/A   Overcast
6:53 PM 36.0 °F 25.6 °F 10.9 °F 36% 29.62 in 10.0 mi SW 18.4 mph 28.8 mph N/A   Overcast
7:53 PM 34.0 °F 25.0 °F 12.9 °F 42% 29.63 in 10.0 mi West 12.7 mph - N/A   Overcast
8:53 PM 32.0 °F 24.8 °F 15.1 °F 50% 29.65 in 10.0 mi West 8.1 mph - N/A   Overcast
9:53 PM 28.9 °F 19.2 °F 21.0 °F 72% 29.69 in 9.0 mi WSW 11.5 mph - 0.00 in Snow Light Snow
10:53 PM 28.0 °F 21.7 °F 21.9 °F 78% 29.71 in 10.0 mi West 5.8 mph - 0.00 in   Partly Cloudy
11:26 PM 28.0 °F 22.8 °F 21.9 °F 78% 29.78 in 10.0 mi NW 4.6 mph - N/A   Overcast
11:53 PM 28.9 °F - 23.0 °F 78% 29.66 in 10.0 mi Calm Calm - N/A   Overcast